Location: Dover
(48.8500°N, 53.9833°W)
Time: 16:33:42
(UTC+00:00)

Resurs 01 Rocket - Pass Details

Date: 14 November 2025
Orbit: 626 x 637 km, 97.7° (Epoch: 09 December)

Event Time Altitude Azimuth Distance (km) Brightness Sun altitude
Exits shadow 22:34:52 28° 353° (N) 1,191 3.0 -26.0°
Drops below altitude 10° 22:37:02 10° 350° (N) 2,037 4.3 -26.3°
Sets 22:39:14 0° 348° (NNW) 2,950 5.2 -26.7°
